Regional Weather Roundup
Issued by NWS

Home | Current Version | Previous Version | Graphics & Text | Print | Product List | Glossary On
Versions: 1 2 3 4 5 6 7 8 9 10 11 12 13 14 15 16 17 18 19 20 21 22 23 24 25 26 27 28 29 30 31 32 33 34 35 36 37 38 39 40 41 42 43 44 45 46 47 48 49 50
000
ASUS45 KCYS 271710
RWRWY

WYOMING REGIONAL WEATHER ROUNDUP
NATIONAL WEATHER SERVICE CHEYENNE WY
1000 AM MST FRI FEB 27 2015

NOTE:  "FAIR" INDICATES FEW OR NO CLOUDS BELOW 12,000 FEET
WITH NO SIGNIFICANT WEATHER AND/OR OBSTRUCTIONS TO VISIBILITY.

WYZ001-271800-
YELLOWSTONE NATIONAL PARK

CITY           SKY/WX    TMP DP  RH WIND       PRES   REMARKS
LK YELLOWSTONE   N/A      3  -3  76 E3        29.77F
W YELLOWSTONE  NOT AVBL

$$
WYZ002>013-054>058-071-098>099-271800-
NORTHERN WYOMING

CITY           SKY/WX    TMP DP  RH WIND       PRES   REMARKS
JACKSON        LGT SNOW  12   9  85 VRB5      29.83F WCI   4
CODY           FAIR      12   9  85 SE3       29.87S
GREYBULL       FAIR      17   3  54 CALM      29.96F
WORLAND        FAIR      13   5  70 SW5       29.95F WCI   5
SHERIDAN       FAIR       2  -3  80 NW3       29.96F
BUFFALO        FAIR       8   1  73 S10       29.88F WCI  -6
GILLETTE       PTSUNNY   10   4  76 S23       29.96F HAZE    WCI -10
HULETT         FAIR      18   5  57 S14G21    30.00F WCI   4
NEWCASTLE      FAIR      16   3  57 SE15G23   30.07F WCI   1

$$
WYZ014>020-022>026-101>103-271800-
CENTRAL WYOMING

CITY           SKY/WX    TMP DP  RH WIND       PRES   REMARKS
BIG PINEY      CLOUDY    13   5  70 VRB6      29.83S WCI   4
PINEDALE       CLOUDY     9   3  78 CALM      29.84S
DUBOIS         CLOUDY    12   5  73 E3        29.73F
LANDER         CLOUDY     5   1  83 NE3       29.88S
RIVERTON       CLOUDY     7   5  91 CALM      29.90F FOG
CASPER         FAIR      10   4  76 VRB3      29.91F
DOUGLAS        FAIR      11   4  73 SE21G29   29.96F WCI  -8

$$
WYZ021-027>030-104>119-271800-
SOUTHERN WYOMING

CITY           SKY/WX    TMP DP  RH WIND       PRES   REMARKS
EVANSTON       CLOUDY    17  13  84 VRB5      29.78F WCI  10
FORT BRIDGER   LGT SNOW  14  11  87 E3        29.84F
ROCK SPRINGS   FAIR      12   7  80 S3        29.83F
DIXON          FAIR      15   8  74 CALM      29.89F
RAWLINS        FAIR      11   3  70 VRB5      29.84F WCI   3
SARATOGA       FAIR      10   5  79 CALM      29.83F
LARAMIE        FAIR       8   1  73 S14       29.79F WCI  -8
CHEYENNE       LGT SNOW   6   1  80 S16       29.93S WCI -12
TORRINGTON     PTSUNNY   16   7  67 SE18G29   30.07F WCI   0
PINE BLUFFS    CLOUDY    12   7  79 S20G25    30.03F WCI  -6

$$



USA.gov is the U.S. government's official web portal to all federal, state and local government web resources and services.